Precipitable_Water
1.36 1.39 1.35 1.32 1.29 1.26 1.24 1.25 1.24 1.22 1.25 1.26 1.27 1.28 1.32 1.37 1.38 1.37 1.35 1.38 1.38 1.35 1.39 1.41 1.41 1.44 1.43 1.47 1.53 1.57 1.61 1.61 1.61 1.60 1.62 1.62 1.61 1.62 1.60 1.62 1.58 1.55 1.55 1.50 1.44 1.40 1.47 1.54 1.52 1.52 1.54 1.54 1.53 1.54 1.55 1.59 1.64 1.68 1.67 1.68 1.65 1.59 1.54
1.35 1.38 1.40 1.36 1.33 1.30 1.29 1.29 1.28 1.26 1.25 1.27 1.28 1.30 1.32 1.35 1.39 1.36 1.34 1.36 1.38 1.36 1.37 1.39 1.39 1.40 1.44 1.47 1.53 1.57 1.60 1.63 1.66 1.67 1.67 1.66 1.68 1.68 1.68 1.66 1.65 1.64 1.66 1.66 1.62 1.57 1.55 1.57 1.57 1.55 1.53 1.53 1.52 1.54 1.54 1.55 1.57 1.61 1.62 1.63 1.60 1.59 1.58
1.36 1.36 1.41 1.38 1.35 1.33 1.33 1.34 1.33 1.29 1.26 1.27 1.29 1.31 1.31 1.34 1.39 1.37 1.35 1.34 1.35 1.38 1.40 1.39 1.38 1.37 1.42 1.48 1.49 1.53 1.59 1.64 1.67 1.70 1.68 1.66 1.67 1.69 1.73 1.72 1.72 1.71 1.73 1.75 1.70 1.66 1.66 1.62 1.61 1.59 1.55 1.51 1.51 1.51 1.53 1.53 1.54 1.58 1.62 1.65 1.65 1.62 1.59
1.38 1.38 1.41 1.44 1.42 1.41 1.41 1.39 1.37 1.35 1.32 1.30 1.30 1.31 1.33 1.35 1.41 1.42 1.41 1.37 1.34 1.35 1.35 1.38 1.38 1.36 1.38 1.42 1.45 1.51 1.57 1.62 1.67 1.71 1.73 1.75 1.73 1.76 1.76 1.76 1.77 1.77 1.74 1.73 1.75 1.71 1.71 1.68 1.62 1.59 1.57 1.52 1.50 1.50 1.50 1.50 1.54 1.56 1.58 1.60 1.58 1.59 1.61
1.36 1.46 1.49 1.48 1.45 1.45 1.46 1.45 1.44 1.42 1.37 1.36 1.37 1.38 1.37 1.38 1.41 1.43 1.45 1.46 1.43 1.36 1.36 1.39 1.42 1.40 1.39 1.43 1.47 1.51 1.55 1.60 1.64 1.69 1.74 1.78 1.80 1.81 1.77 1.77 1.79 1.79 1.77 1.77 1.77 1.74 1.70 1.68 1.64 1.62 1.59 1.55 1.51 1.50 1.47 1.49 1.49 1.52 1.52 1.54 1.49 1.49 1.49
1.26 1.28 1.38 1.51 1.50 1.46 1.48 1.48 1.49 1.48 1.46 1.43 1.41 1.40 1.42 1.42 1.43 1.42 1.45 1.48 1.48 1.47 1.45 1.44 1.42 1.42 1.36 1.40 1.46 1.52 1.57 1.60 1.64 1.67 1.70 1.74 1.77 1.78 1.77 1.78 1.79 1.80 1.79 1.77 1.78 1.76 1.75 1.71 1.68 1.67 1.65 1.62 1.58 1.54 1.53 1.51 1.51 1.52 1.52 1.52 1.49 1.48 1.45
1.31 1.32 1.36 1.43 1.51 1.49 1.49 1.50 1.52 1.55 1.57 1.55 1.55 1.54 1.51 1.47 1.42 1.43 1.47 1.48 1.51 1.46 1.43 1.41 1.42 1.42 1.40 1.40 1.41 1.47 1.50 1.54 1.59 1.62 1.67 1.70 1.75 1.76 1.78 1.79 1.80 1.82 1.83 1.84 1.78 1.79 1.76 1.74 1.71 1.70 1.69 1.68 1.66 1.62 1.58 1.56 1.54 1.56 1.56 1.52 1.48 1.49 1.48
1.38 1.35 1.38 1.43 1.47 1.49 1.50 1.53 1.55 1.59 1.63 1.65 1.64 1.62 1.58 1.56 1.51 1.47 1.45 1.49 1.54 1.53 1.48 1.43 1.42 1.42 1.44 1.44 1.40 1.38 1.46 1.51 1.57 1.60 1.64 1.64 1.69 1.72 1.76 1.78 1.80 1.83 1.85 1.80 1.82 1.83 1.79 1.76 1.74 1.72 1.71 1.71 1.71 1.71 1.69 1.67 1.64 1.64 1.63 1.57 1.52 1.49 1.51
1.44 1.46 1.43 1.44 1.47 1.49 1.52 1.54 1.58 1.60 1.63 1.64 1.65 1.65 1.66 1.65 1.60 1.54 1.50 1.53 1.58 1.55 1.52 1.52 1.49 1.50 1.51 1.48 1.41 1.35 1.39 1.47 1.49 1.53 1.57 1.58 1.61 1.65 1.72 1.76 1.79 1.84 1.82 1.81 1.81 1.84 1.83 1.81 1.79 1.77 1.76 1.75 1.75 1.76 1.75 1.73 1.70 1.70 1.68 1.64 1.60 1.54 1.53
1.43 1.46 1.51 1.55 1.55 1.53 1.51 1.52 1.57 1.60 1.61 1.64 1.67 1.68 1.70 1.71 1.70 1.66 1.60 1.57 1.59 1.58 1.59 1.60 1.60 1.60 1.57 1.54 1.49 1.42 1.37 1.37 1.43 1.44 1.48 1.52 1.56 1.58 1.66 1.72 1.77 1.83 1.83 1.84 1.84 1.80 1.84 1.87 1.85 1.83 1.81 1.78 1.78 1.79 1.78 1.75 1.73 1.72 1.71 1.67 1.64 1.62 1.59
1.49 1.51 1.53 1.54 1.55 1.55 1.53 1.50 1.50 1.54 1.59 1.62 1.66 1.69 1.72 1.75 1.77 1.78 1.76 1.74 1.70 1.68 1.70 1.71 1.72 1.67 1.63 1.60 1.54 1.47 1.39 1.35 1.37 1.36 1.38 1.46 1.53 1.56 1.62 1.66 1.70 1.75 1.76 1.80 1.81 1.83 1.84 1.85 1.88 1.85 1.84 1.80 1.79 1.79 1.79 1.78 1.77 1.74 1.71 1.69 1.69 1.68 1.67
1.48 1.52 1.53 1.55 1.58 1.59 1.57 1.54 1.54 1.57 1.60 1.63 1.66 1.69 1.72 1.77 1.82 1.83 1.81 1.80 1.81 1.76 1.73 1.74 1.74 1.70 1.65 1.63 1.58 1.52 1.44 1.40 1.38 1.35 1.35 1.39 1.45 1.51 1.57 1.62 1.65 1.66 1.70 1.75 1.77 1.81 1.83 1.83 1.86 1.86 1.84 1.84 1.84 1.83 1.83 1.83 1.81 1.78 1.74 1.71 1.72 1.73 1.72
1.48 1.53 1.56 1.55 1.53 1.55 1.59 1.59 1.58 1.62 1.66 1.69 1.72 1.74 1.76 1.76 1.78 1.83 1.83 1.80 1.83 1.87 1.83 1.82 1.81 1.78 1.72 1.68 1.63 1.58 1.51 1.46 1.42 1.41 1.39 1.40 1.45 1.51 1.55 1.58 1.63 1.64 1.63 1.70 1.73 1.74 1.76 1.81 1.83 1.89 1.88 1.88 1.88 1.85 1.83 1.82 1.82 1.80 1.79 1.77 1.75 1.75 1.75
1.50 1.54 1.57 1.61 1.58 1.55 1.54 1.60 1.67 1.71 1.74 1.78 1.81 1.84 1.84 1.83 1.82 1.81 1.81 1.81 1.83 1.88 1.89 1.87 1.85 1.84 1.81 1.76 1.69 1.61 1.57 1.54 1.54 1.52 1.50 1.50 1.51 1.53 1.57 1.61 1.63 1.64 1.67 1.69 1.69 1.71 1.73 1.76 1.79 1.85 1.87 1.87 1.88 1.90 1.89 1.85 1.82 1.83 1.84 1.84 1.83 1.81 1.78
1.39 1.44 1.48 1.49 1.52 1.59 1.64 1.69 1.73 1.75 1.76 1.79 1.83 1.86 1.92 1.95 1.95 1.92 1.90 1.90 1.91 1.94 1.91 1.93 1.92 1.90 1.88 1.85 1.74 1.64 1.58 1.55 1.54 1.54 1.51 1.46 1.43 1.43 1.45 1.48 1.52 1.57 1.61 1.65 1.68 1.72 1.75 1.78 1.79 1.78 1.78 1.81 1.84 1.85 1.87 1.85 1.84 1.86 1.86 1.85 1.85 1.85 1.81
1.37 1.43 1.47 1.49 1.54 1.58 1.64 1.70 1.78 1.76 1.76 1.83 1.85 1.86 1.87 1.88 1.95 1.99 1.95 1.91 1.93 1.94 1.99 1.99 1.96 1.93 1.91 1.87 1.84 1.81 1.69 1.57 1.52 1.50 1.47 1.45 1.43 1.46 1.51 1.53 1.55 1.55 1.54 1.57 1.62 1.66 1.70 1.73 1.76 1.75 1.74 1.74 1.76 1.79 1.81 1.81 1.83 1.84 1.86 1.87 1.85 1.84 1.85
1.34 1.39 1.45 1.49 1.51 1.56 1.62 1.68 1.70 1.69 1.73 1.81 1.81 1.81 1.84 1.89 1.92 1.94 1.99 2.04 2.05 2.01 2.03 2.04 1.96 1.93 1.94 1.89 1.90 1.93 1.89 1.74 1.62 1.57 1.51 1.47 1.46 1.46 1.47 1.49 1.51 1.51 1.51 1.55 1.60 1.61 1.63 1.66 1.66 1.69 1.72 1.72 1.72 1.74 1.78 1.79 1.81 1.81 1.82 1.82 1.83 1.83 1.82
1.31 1.34 1.37 1.42 1.44 1.44 1.51 1.56 1.63 1.69 1.74 1.78 1.81 1.82 1.86 1.93 1.97 1.98 1.97 2.00 2.03 2.09 2.13 2.11 2.06 2.01 1.98 1.97 1.94 1.94 1.92 1.87 1.79 1.70 1.67 1.66 1.61 1.57 1.52 1.51 1.60 1.64 1.60 1.54 1.55 1.63 1.67 1.63 1.64 1.69 1.72 1.71 1.70 1.70 1.73 1.76 1.81 1.82 1.82 1.82 1.82 1.83 1.82
1.27 1.31 1.36 1.38 1.39 1.41 1.44 1.50 1.60 1.68 1.75 1.79 1.79 1.81 1.86 1.91 1.91 1.91 1.97 2.03 2.09 2.15 2.16 2.15 2.07 2.08 2.08 2.08 2.00 1.95 1.94 1.93 1.89 1.85 1.81 1.79 1.76 1.70 1.64 1.58 1.60 1.68 1.69 1.63 1.63 1.68 1.70 1.69 1.67 1.64 1.68 1.73 1.72 1.69 1.73 1.75 1.81 1.83 1.84 1.84 1.84 1.84 1.85
1.23 1.28 1.31 1.33 1.34 1.37 1.43 1.49 1.55 1.65 1.73 1.77 1.81 1.85 1.92 1.98 1.96 1.99 2.04 2.07 2.12 2.13 2.14 2.09 2.10 2.05 2.04 2.09 2.09 1.97 1.93 1.92 1.88 1.83 1.82 1.85 1.88 1.86 1.81 1.77 1.72 1.74 1.76 1.78 1.76 1.68 1.73 1.76 1.66 1.64 1.65 1.66 1.67 1.69 1.74 1.76 1.80 1.82 1.84 1.85 1.86 1.86 1.88
1.25 1.27 1.29 1.32 1.34 1.36 1.39 1.44 1.50 1.57 1.64 1.68 1.74 1.81 1.89 1.95 2.00 2.04 2.08 2.11 2.08 2.11 2.12 2.13 2.12 2.05 2.03 2.06 2.10 2.02 1.98 1.95 1.90 1.85 1.86 1.90 1.94 1.95 1.92 1.89 1.86 1.86 1.88 1.88 1.84 1.79 1.77 1.73 1.66 1.66 1.67 1.69 1.70 1.67 1.69 1.72 1.76 1.78 1.80 1.81 1.83 1.85 1.87
1.24 1.27 1.27 1.32 1.34 1.38 1.41 1.44 1.47 1.52 1.57 1.69 1.73 1.78 1.86 1.91 1.99 2.00 2.03 2.13 2.12 2.11 2.10 2.08 2.08 2.05 2.06 2.07 2.10 2.04 2.00 1.96 1.92 1.91 1.90 1.90 1.92 1.93 1.93 1.93 1.90 1.93 1.98 1.94 1.92 1.90 1.86 1.82 1.76 1.72 1.70 1.70 1.68 1.65 1.62 1.66 1.70 1.72 1.73 1.74 1.75 1.76 1.78
1.28 1.31 1.34 1.37 1.40 1.41 1.48 1.52 1.54 1.58 1.60 1.64 1.69 1.74 1.82 1.92 1.98 2.00 2.03 2.04 2.06 2.06 2.05 2.03 2.01 2.01 2.04 2.07 2.11 2.11 2.06 2.00 1.96 1.95 1.93 1.96 1.97 1.96 1.94 1.92 1.93 2.04 2.09 1.99 1.93 1.89 1.87 1.84 1.83 1.80 1.75 1.72 1.70 1.67 1.68 1.69 1.70 1.70 1.70 1.71 1.72 1.72 1.72
1.37 1.38 1.39 1.40 1.43 1.45 1.48 1.52 1.58 1.62 1.61 1.62 1.67 1.75 1.85 1.91 1.93 1.96 1.92 1.92 1.98 2.00 2.02 2.02 1.99 2.02 2.03 2.02 2.10 2.14 2.11 2.08 2.05 2.02 1.99 1.98 1.97 1.96 1.96 1.95 1.95 1.97 2.05 1.99 1.94 1.89 1.91 1.96 1.95 1.96 1.94 1.89 1.84 1.84 1.82 1.83 1.82 1.80 1.79 1.80 1.81 1.80 1.76
1.31 1.31 1.32 1.35 1.37 1.37 1.42 1.48 1.53 1.56 1.59 1.61 1.60 1.69 1.79 1.86 1.97 2.01 1.88 1.89 1.89 1.91 1.90 1.89 1.90 1.91 1.92 1.97 2.04 2.09 2.09 2.10 2.08 2.05 2.01 1.97 1.98 2.00 1.95 1.92 1.90 1.93 1.99 2.00 1.99 1.95 1.98 1.98 1.97 1.98 1.97 1.96 1.93 1.92 1.89 1.88 1.91 1.95 1.94 1.93 1.93 1.93 1.92
1.23 1.25 1.26 1.31 1.35 1.38 1.38 1.41 1.45 1.45 1.46 1.49 1.55 1.64 1.69 1.75 1.94 2.00 1.92 1.91 1.89 1.86 1.85 1.88 1.93 1.95 1.95 1.95 1.97 1.97 1.98 2.02 2.01 2.02 2.00 1.96 1.99 2.03 2.01 2.02 1.97 1.94 1.95 1.98 1.98 1.95 1.95 1.96 1.95 1.95 1.96 1.99 1.98 1.96 1.95 1.93 1.94 1.97 2.00 2.00 1.99 1.99 2.00
1.27 1.26 1.23 1.24 1.25 1.30 1.30 1.30 1.30 1.33 1.40 1.47 1.54 1.60 1.63 1.69 1.69 1.70 1.74 1.78 1.81 1.84 1.92 1.94 1.95 1.96 1.97 1.97 1.97 1.97 1.97 1.99 2.00 2.00 2.04 2.05 2.03 2.04 2.05 2.05 2.01 1.98 1.97 1.96 1.98 1.97 1.95 1.94 1.95 1.95 1.96 2.01 2.03 1.98 1.97 1.98 1.94 1.94 1.96 1.96 1.98 1.99 1.99
1.17 1.16 1.19 1.24 1.23 1.15 1.13 1.18 1.21 1.28 1.38 1.50 1.57 1.58 1.60 1.62 1.58 1.60 1.65 1.66 1.66 1.74 1.87 1.92 1.89 1.92 1.96 1.95 1.90 1.91 1.91 1.92 1.91 1.95 1.94 2.00 1.99 1.96 1.94 1.96 1.96 1.94 1.95 1.96 1.95 1.94 1.92 1.93 1.95 1.91 1.87 1.90 1.95 1.95 1.93 1.92 1.89 1.91 1.95 1.99 2.01 2.02 2.04
1.03 0.98 0.97 1.07 1.15 1.11 1.05 1.06 1.12 1.16 1.25 1.39 1.48 1.52 1.55 1.54 1.49 1.53 1.58 1.58 1.66 1.75 1.84 1.88 1.86 1.87 1.85 1.84 1.82 1.90 1.91 1.89 1.89 1.88 1.90 1.88 1.89 1.86 1.83 1.87 1.87 1.88 1.90 1.89 1.86 1.82 1.79 1.83 1.88 1.83 1.78 1.79 1.83 1.88 1.89 1.92 1.92 1.91 1.94 1.97 1.98 1.98 1.99
1.04 0.99 0.97 1.03 1.08 1.08 1.02 0.97 1.03 1.09 1.13 1.18 1.24 1.27 1.29 1.30 1.30 1.32 1.39 1.51 1.65 1.67 1.73 1.77 1.78 1.75 1.71 1.72 1.74 1.80 1.79 1.79 1.79 1.78 1.75 1.76 1.77 1.80 1.78 1.78 1.82 1.84 1.84 1.82 1.81 1.79 1.83 1.81 1.80 1.79 1.75 1.70 1.71 1.76 1.85 1.87 1.87 1.87 1.87 1.88 1.88 1.87 1.88
0.97 0.92 0.90 0.91 0.93 0.99 0.99 0.96 0.96 0.99 1.03 1.10 1.14 1.14 1.12 1.17 1.17 1.21 1.26 1.36 1.44 1.41 1.44 1.52 1.54 1.45 1.42 1.51 1.55 1.59 1.61 1.57 1.57 1.59 1.60 1.63 1.64 1.58 1.62 1.64 1.70 1.72 1.79 1.83 1.80 1.79 1.78 1.79 1.78 1.77 1.71 1.68 1.67 1.71 1.76 1.79 1.79 1.78 1.80 1.80 1.79 1.77 1.75
0.90 0.88 0.88 0.88 0.89 0.91 0.91 0.92 0.92 0.93 0.94 1.00 1.06 1.09 1.11 1.11 1.11 1.06 1.14 1.26 1.30 1.34 1.36 1.39 1.37 1.36 1.39 1.43 1.46 1.45 1.44 1.41 1.42 1.40 1.43 1.46 1.49 1.45 1.42 1.41 1.44 1.49 1.54 1.59 1.63 1.67 1.68 1.71 1.72 1.72 1.72 1.70 1.65 1.66 1.65 1.67 1.66 1.65 1.65 1.67 1.66 1.65 1.64
0.86 0.88 0.87 0.85 0.90 0.92 0.92 0.90 0.87 0.87 0.88 0.91 0.99 1.03 1.05 1.05 1.08 1.10 1.15 1.17 1.21 1.24 1.28 1.31 1.34 1.34 1.32 1.33 1.35 1.36 1.34 1.30 1.29 1.29 1.29 1.29 1.30 1.29 1.28 1.27 1.24 1.26 1.29 1.33 1.36 1.40 1.44 1.47 1.48 1.50 1.49 1.49 1.53 1.55 1.54 1.52 1.51 1.50 1.50 1.51 1.51 1.50 1.49
0.89 0.89 0.91 0.91 0.91 0.90 0.89 0.88 0.87 0.86 0.86 0.86 0.90 0.93 0.96 1.01 1.04 1.07 1.09 1.11 1.12 1.14 1.15 1.17 1.20 1.20 1.21 1.21 1.24 1.24 1.24 1.23 1.24 1.20 1.14 1.11 1.10 1.10 1.15 1.17 1.18 1.17 1.13 1.14 1.16 1.18 1.18 1.22 1.23 1.22 1.21 1.22 1.24 1.25 1.26 1.27 1.30 1.32 1.35 1.39 1.41 1.41 1.42
1.01 0.99 0.99 0.97 0.99 1.00 0.97 0.95 0.93 0.93 0.92 0.93 0.97 0.97 0.95 0.96 0.97 1.00 1.04 1.07 1.09 1.08 1.07 1.08 1.13 1.17 1.20 1.22 1.22 1.19 1.17 1.14 1.11 1.08 1.06 1.02 0.98 1.01 1.07 1.10 1.13 1.14 1.16 1.19 1.20 1.19 1.15 1.10 1.10 1.09 1.10 1.08 1.06 1.05 1.04 1.05 1.04 1.06 1.11 1.15 1.21 1.27 1.30
1.06 1.07 1.06 1.09 1.09 1.08 1.05 1.04 1.02 1.00 0.98 0.98 1.01 1.01 1.01 1.00 1.00 1.02 1.06 1.09 1.10 1.11 1.06 1.05 1.07 1.09 1.13 1.18 1.19 1.19 1.16 1.13 1.10 1.07 1.03 0.99 0.96 0.94 0.96 1.04 1.06 1.09 1.09 1.09 1.14 1.16 1.17 1.15 1.07 1.06 1.04 1.00 1.00 1.01 0.95 0.93 0.96 0.96 0.93 0.90 0.88 0.89 0.91
1.01 1.03 1.04 1.06 1.05 1.05 1.05 1.07 1.06 1.03 1.01 1.02 1.03 1.02 1.02 1.03 1.05 1.03 1.03 1.05 1.10 1.11 1.11 1.10 1.08 1.06 1.08 1.10 1.12 1.14 1.13 1.10 1.07 1.05 1.04 1.02 0.99 0.97 0.92 0.89 0.95 0.97 0.98 0.98 0.98 0.98 0.98 0.96 0.92 0.88 0.85 0.82 0.78 0.80 0.82 0.81 0.80 0.79 0.78 0.78 0.78 0.77 0.78
1.02 1.01 1.00 1.00 0.98 0.98 0.99 1.02 1.03 1.03 1.05 1.08 1.06 1.04 1.03 1.03 1.05 1.05 1.06 1.05 1.04 1.03 1.03 1.05 1.04 1.04 1.06 1.10 1.13 1.13 1.11 1.08 1.05 1.04 1.02 1.00 0.98 0.96 0.91 0.84 0.79 0.79 0.83 0.83 0.82 0.82 0.82 0.83 0.84 0.85 0.84 0.83 0.82 0.79 0.78 0.79 0.79 0.78 0.77 0.77 0.79 0.83 0.87
Wind_Speed
26 25 25 25 24 24 23 23 22 22 22 22 21 21 20 20 19 19 18 18 18 18 17 17 16 17 16 16 16 15 15 14 13 13 12 12 11 11 10 10 10 10 9 9 9 9 8 8 8 7 7 7 7 7 7 6 6 5 5 5 4 4 4
26 25 25 25 25 24 24 24 23 23 23 22 22 22 21 20 20 19 19 19 19 18 18 18 17 17 17 17 16 16 15 15 14 13 13 12 12 12 11 11 10 10 10 9 9 9 9 8 8 8 8 7 7 7 7 7 7 6 6 5 5 5 4
26 26 25 25 25 24 24 24 23 23 23 23 22 22 22 21 21 20 19 19 19 19 19 19 18 18 18 17 17 16 16 15 15 14 14 13 13 12 12 11 11 10 10 10 10 9 9 9 9 9 8 8 8 8 8 8 7 7 7 6 6 6 5
25 25 25 25 25 25 24 24 24 24 23 24 23 23 23 22 21 21 20 20 20 20 19 19 19 19 18 18 17 17 16 16 15 15 14 14 13 13 13 12 12 11 11 11 10 10 10 9 9 9 9 9 8 8 8 8 8 8 7 7 7 7 7
24 24 24 25 25 25 25 25 25 25 24 24 24 23 23 22 22 21 21 20 20 20 20 20 19 19 19 19 18 18 17 17 16 15 15 15 14 14 13 13 13 12 12 11 11 11 11 10 10 10 9 9 9 9 9 9 8 8 8 8 8 7 7
22 23 23 24 25 25 25 26 26 26 25 24 24 24 23 23 22 22 21 21 21 21 20 20 20 20 20 19 19 18 18 17 17 16 15 15 15 14 14 14 13 13 13 12 12 12 12 11 11 11 10 10 10 10 9 9 9 9 9 8 8 8 8
20 22 22 23 24 24 25 25 26 26 26 25 25 24 23 23 23 22 22 21 21 21 21 21 21 21 20 20 20 19 19 18 17 17 16 15 15 15 14 14 14 14 13 13 13 13 13 12 12 12 12 11 11 11 10 10 10 9 9 9 9 8 8
18 20 22 22 23 23 24 24 25 25 25 26 25 25 24 24 23 23 22 22 22 21 22 21 21 21 21 20 20 20 19 19 18 17 17 16 16 15 15 15 14 14 14 14 14 13 13 13 13 12 12 12 12 11 11 11 11 10 10 9 9 9 9
16 18 20 21 22 22 23 23 24 24 25 26 26 26 26 25 24 24 23 23 22 22 22 22 21 21 21 20 20 20 20 19 19 18 18 17 17 16 15 15 15 15 14 14 14 14 14 13 13 13 13 13 12 12 12 12 11 11 11 10 10 10 10
15 16 17 19 20 21 22 23 23 24 25 26 27 27 27 26 25 25 24 23 23 23 23 22 22 21 21 21 21 20 20 20 20 19 19 18 17 17 16 16 16 15 15 15 14 14 14 14 14 14 13 13 13 13 12 12 12 12 11 11 11 11 10
12 14 15 16 18 20 21 22 23 24 25 27 27 27 27 27 26 25 24 23 22 23 23 23 22 22 22 21 21 21 21 20 20 20 20 19 18 18 18 17 16 16 16 15 15 15 15 14 14 14 14 14 13 13 13 13 13 12 12 12 12 11 11
11 13 14 15 16 18 20 21 23 24 25 26 27 27 27 27 26 26 25 24 23 23 23 23 23 23 23 22 22 22 21 21 21 21 20 20 19 19 18 18 17 17 17 16 16 16 15 15 15 15 15 14 14 14 14 14 13 13 13 13 12 12 11
11 12 13 15 16 18 20 21 22 24 25 25 26 27 27 27 28 28 27 26 26 25 25 24 24 24 23 23 23 23 23 22 22 21 21 21 20 19 19 19 18 18 17 17 17 17 16 16 16 16 15 15 15 15 14 14 14 14 14 13 13 13 12
9 10 12 13 14 16 18 19 21 22 23 24 25 26 26 27 28 29 28 28 28 27 27 26 26 25 24 24 24 24 24 23 22 22 21 21 20 20 19 19 19 18 18 18 17 17 17 17 17 17 16 16 16 15 15 15 15 15 14 14 14 14 14
7 8 10 11 12 14 15 17 18 20 21 24 25 26 27 27 27 28 29 30 29 28 28 28 27 26 25 25 25 24 24 24 23 23 22 22 21 21 20 20 20 19 19 19 18 18 18 18 17 17 17 17 17 16 16 16 16 15 15 15 15 15 15
8 8 9 10 12 13 14 16 17 18 19 21 23 25 27 28 28 29 29 30 30 30 29 30 29 28 26 26 25 25 24 24 24 23 23 23 22 22 22 21 21 20 20 20 19 19 19 18 18 18 18 18 17 17 17 17 17 17 17 16 16 16 15
8 9 9 10 12 13 14 15 16 16 17 18 20 22 25 27 28 29 30 30 31 31 31 31 31 30 29 28 27 26 25 25 25 24 24 23 23 23 23 23 22 22 21 21 20 20 20 19 19 19 18 18 18 18 18 18 17 18 18 18 17 17 17
10 9 9 11 12 12 13 14 15 15 16 17 19 20 22 25 27 28 29 30 32 32 32 32 31 31 30 29 28 27 26 25 25 25 24 24 24 24 24 24 23 23 23 22 21 21 21 20 20 20 19 19 19 19 19 18 18 18 18 18 19 18 18
10 11 11 11 12 12 12 13 14 14 16 17 18 20 21 22 25 27 29 30 31 32 32 31 31 31 31 30 28 27 27 26 26 25 24 24 24 24 24 24 24 24 24 23 22 22 21 21 21 21 20 20 20 20 20 19 19 19 19 19 19 19 19
10 11 12 12 12 12 13 14 14 14 15 16 17 19 20 22 23 25 27 29 30 31 31 31 30 30 31 30 28 27 27 27 26 25 25 24 24 24 25 24 24 24 24 23 22 22 21 21 21 21 21 21 21 21 21 20 20 20 20 20 20 20 20
9 10 11 11 12 12 13 14 14 15 15 15 16 17 18 20 21 21 23 26 28 30 30 30 29 30 31 30 28 27 27 27 27 26 26 25 25 25 25 25 24 24 24 23 22 22 21 21 21 21 21 21 21 21 21 21 21 21 21 21 21 21 21
10 10 11 11 11 12 12 13 13 14 14 14 14 15 16 17 18 19 20 22 24 27 28 29 28 28 29 29 27 26 26 26 26 26 26 25 24 24 25 25 24 24 24 24 23 22 22 21 21 21 22 22 22 21 21 21 21 21 21 21 22 22 22
10 10 10 11 11 11 11 11 12 12 13 13 13 13 14 15 16 16 17 18 20 22 25 26 26 26 26 26 25 24 25 25 25 25 25 24 24 24 24 25 25 24 24 24 24 23 23 22 22 22 23 23 23 22 22 22 22 22 22 22 22 23 23
9 9 9 9 10 10 10 10 10 10 11 11 11 11 12 12 13 14 14 15 16 18 20 22 24 24 24 24 23 22 23 24 25 25 25 25 25 25 25 25 25 25 25 25 25 24 23 23 23 23 24 24 24 24 24 24 23 23 23 23 23 23 24
8 8 8 8 8 8 8 8 9 9 8 9 9 9 9 10 10 11 11 11 13 14 15 17 20 21 22 23 23 23 23 23 24 25 25 25 25 25 25 25 25 25 25 25 25 25 25 24 24 25 25 26 26 25 25 25 25 24 24 24 24 24 25
9 8 8 8 8 8 7 7 8 8 8 8 8 9 9 8 8 8 8 9 11 12 13 14 16 17 18 19 21 22 22 23 24 24 24 24 24 24 25 25 26 25 25 25 25 26 25 25 25 25 25 27 28 27 26 26 26 25 25 25 25 25 26
9 9 8 8 8 8 7 6 7 7 7 8 8 8 8 8 7 7 8 8 8 9 11 12 13 13 13 14 15 15 16 17 18 19 20 21 22 23 24 25 25 25 24 24 24 24 24 23 23 22 22 24 26 27 26 25 25 25 25 25 25 25 26
10 9 8 8 8 7 6 6 6 5 6 7 7 8 8 7 7 7 7 7 7 8 9 10 10 10 11 10 11 11 11 11 12 13 13 15 16 17 19 21 21 22 22 22 22 21 21 21 20 19 18 18 19 22 23 22 22 22 23 23 23 24 24
11 10 9 9 8 7 7 6 5 5 5 5 5 6 7 7 7 7 7 6 6 7 8 8 8 8 9 9 9 9 9 10 10 10 10 10 11 11 13 15 16 18 18 18 18 18 18 18 18 18 17 15 15 17 19 19 19 19 19 20 20 21 21
10 10 10 9 9 9 8 7 6 5 5 5 4 4 5 6 6 7 7 6 7 7 7 7 8 8 8 8 8 8 8 8 9 9 8 9 9 9 10 11 12 13 14 15 15 16 16 16 16 17 16 16 15 15 15 16 17 17 17 17 18 18 19
10 9 9 9 9 9 8 7 7 6 5 5 4 4 5 5 6 6 7 7 7 7 6 7 7 6 7 8 8 8 8 8 7 7 8 8 8 8 8 8 9 10 11 12 13 13 13 13 14 15 15 16 16 15 15 15 16 16 16 17 17 17 17
10 9 9 8 7 7 7 6 6 6 6 6 6 5 5 6 5 6 7 8 8 8 8 8 7 7 7 8 8 8 9 8 7 7 7 7 8 8 8 8 9 9 10 11 11 11 11 11 12 12 13 14 14 15 15 15 16 16 16 17 17 17 17
9 9 9 8 8 7 7 6 6 6 6 6 7 6 6 6 6 6 6 7 8 8 9 9 9 8 8 8 8 9 9 9 9 9 9 9 9 9 10 10 10 10 10 11 11 11 11 11 12 12 13 13 13 14 15 15 15 16 16 16 17 17 17
8 8 8 8 7 7 7 6 6 6 5 5 6 7 7 7 7 7 7 7 8 8 8 8 8 9 9 10 10 10 9 10 10 10 10 11 11 11 11 11 11 11 12 12 12 12 12 12 12 13 14 14 14 15 15 15 15 16 16 16 17 17 18
7 7 7 7 7 7 7 6 6 6 5 5 6 7 7 7 8 8 8 8 9 9 9 9 9 9 10 11 11 11 11 11 11 11 11 12 12 12 11 12 12 12 13 13 13 13 13 13 14 14 15 15 15 16 16 16 16 16 16 17 17 17 18
6 6 6 6 7 7 7 7 7 7 6 7 7 7 7 7 8 8 9 9 10 10 10 10 11 11 11 12 12 12 12 12 12 12 12 12 13 12 12 12 12 13 14 14 14 15 15 15 16 16 17 17 17 17 17 17 18 18 18 18 18 18 18
6 6 6 6 7 7 7 8 8 8 8 9 9 9 9 9 9 9 9 10 11 11 11 12 12 12 13 14 14 13 13 14 14 14 14 14 14 14 14 14 14 15 15 16 16 17 17 17 17 18 18 18 18 18 18 19 19 19 19 19 19 19 19
6 6 6 6 6 7 7 8 9 9 10 10 10 11 11 11 11 11 11 11 12 12 13 13 13 14 14 15 15 15 15 16 16 16 16 16 17 16 16 16 16 16 17 17 17 18 18 18 18 18 18 18 19 19 19 20 20 20 20 20 20 20 20
Wind_Direction
206 206 207 206 204 204 205 204 204 204 203 203 203 203 203 203 203 204 204 202 202 203 203 204 205 205 206 206 207 207 208 208 208 209 209 210 212 212 212 212 212 213 213 212 211 210 211 210 210 211 212 210 212 213 213 214 214 214 214 213 213 213 215
205 206 207 206 205 206 205 205 205 205 205 204 205 205 205 205 205 206 207 206 205 206 206 207 208 208 209 209 209 211 211 211 211 211 212 213 215 216 216 216 216 217 218 218 217 216 215 215 215 216 216 217 218 219 219 218 219 220 221 221 221 224 228
204 205 205 205 205 207 206 205 205 206 206 206 205 206 207 207 207 207 209 209 208 209 209 209 210 210 211 211 212 213 214 213 213 214 215 216 218 219 219 220 220 221 221 222 222 222 221 220 220 221 221 222 224 224 223 222 222 223 225 226 227 229 232
203 205 206 207 207 208 207 206 206 207 207 207 207 207 209 210 210 209 210 210 210 210 211 212 212 212 213 213 214 215 215 215 216 217 218 219 219 221 222 222 223 224 224 225 225 225 225 224 224 225 225 225 227 228 227 226 226 227 228 230 232 233 235
203 205 207 209 209 209 208 207 207 207 209 209 208 209 210 211 212 211 212 212 212 213 213 213 214 214 214 215 215 216 217 217 219 220 221 221 221 222 223 224 225 226 227 227 227 227 227 227 227 227 227 227 229 230 229 229 230 231 233 234 237 238 239
203 205 206 207 208 209 209 208 208 208 209 211 210 210 211 212 213 213 213 214 215 215 215 215 215 215 216 217 217 218 218 219 220 221 222 223 223 223 225 225 225 227 228 227 228 228 229 230 230 230 230 230 230 231 230 231 232 234 235 237 240 241 242
204 206 205 204 206 209 210 210 210 210 211 212 213 213 213 213 214 214 215 216 216 216 216 216 216 217 218 219 219 219 220 221 221 222 223 224 225 225 225 226 226 226 227 228 228 229 231 232 233 233 233 233 232 232 232 234 235 235 237 239 240 242 244
207 208 207 207 207 209 211 210 211 212 213 214 214 215 215 215 216 216 216 217 218 218 217 217 218 218 219 220 221 221 222 222 223 223 224 225 226 227 227 226 227 227 227 228 229 231 232 233 234 235 235 235 235 234 235 237 238 238 239 240 241 243 244
206 209 210 211 211 212 213 213 213 214 215 216 216 217 218 218 218 218 218 219 219 218 218 219 219 219 219 221 222 222 223 224 224 224 225 225 226 228 228 228 228 228 229 230 231 232 233 233 233 235 236 237 236 236 237 239 240 240 240 241 242 243 244
204 206 208 210 213 214 215 215 216 217 217 218 218 218 219 220 221 221 221 221 221 220 219 220 221 221 221 222 222 223 223 224 225 225 226 226 227 228 229 230 230 230 231 232 233 234 233 233 233 234 236 237 237 238 239 240 240 240 241 241 242 243 244
204 205 207 210 214 217 218 218 219 219 220 220 220 219 219 220 221 221 221 222 223 223 223 222 222 223 223 223 224 223 223 224 225 225 226 227 228 228 229 230 231 231 232 233 234 235 234 234 234 235 236 237 239 239 240 240 240 241 242 243 243 243 243
209 207 208 210 214 218 221 222 223 223 222 222 222 221 220 219 220 221 221 221 223 225 225 224 223 224 224 225 225 224 224 224 225 226 226 227 228 229 230 231 231 232 233 234 235 235 235 235 235 236 237 238 239 240 241 241 242 242 243 244 244 243 244
214 212 213 215 217 219 222 224 226 226 224 223 223 223 222 221 221 222 222 223 223 224 225 225 224 225 226 226 226 226 225 225 226 227 227 228 229 230 231 232 233 233 234 235 235 236 236 236 237 237 237 238 239 240 241 242 243 244 244 244 244 245 246
220 218 219 221 223 224 225 227 228 227 226 226 227 226 226 225 223 223 224 225 225 225 225 225 225 226 227 227 227 227 227 226 226 227 228 229 230 232 232 233 233 234 235 235 235 236 236 237 238 238 238 239 239 240 242 243 244 244 244 244 244 246 247
225 227 227 226 227 228 229 230 231 232 232 231 232 231 230 229 227 226 226 226 226 226 226 226 226 226 228 228 228 228 227 227 227 227 228 229 230 231 232 233 234 235 235 235 236 237 237 238 239 239 240 240 240 242 243 243 244 245 245 246 246 247 249
229 232 233 232 233 234 233 234 237 238 236 234 234 234 233 232 230 229 229 228 227 227 227 227 227 227 228 228 228 229 228 227 227 228 228 229 231 232 232 234 235 235 235 236 237 237 238 239 240 241 242 242 243 244 244 245 245 245 245 247 248 249 251
233 235 236 237 240 241 239 239 241 243 240 237 237 237 235 233 232 231 231 231 230 229 228 228 228 228 227 227 228 229 230 229 228 228 229 230 232 233 234 234 235 235 235 236 237 238 239 240 241 242 244 244 245 245 246 246 246 245 245 247 248 250 251
235 237 238 240 246 249 246 245 246 246 244 243 242 241 239 236 234 233 233 232 232 231 229 229 229 229 228 228 228 229 230 230 229 229 230 231 233 235 236 235 235 236 236 236 237 238 239 241 241 243 244 246 246 246 247 248 247 246 247 247 248 249 251
240 241 242 244 251 255 253 252 252 250 249 249 248 247 243 239 236 235 234 233 232 232 230 229 230 230 228 227 227 229 231 231 231 231 231 232 234 236 236 236 237 237 236 236 236 238 240 242 242 243 244 245 246 247 247 248 249 249 249 250 250 250 251
242 244 246 248 253 258 258 257 255 254 255 255 253 251 246 242 240 237 236 234 232 231 229 229 230 230 227 226 227 229 231 231 231 232 233 234 235 236 236 237 238 237 235 234 235 237 239 241 242 244 245 245 246 246 247 248 249 250 251 252 253 253 253
245 249 252 253 255 259 260 260 257 256 256 257 256 253 248 244 242 240 237 235 232 231 229 229 229 229 227 226 227 229 231 232 232 232 234 235 236 237 236 236 237 235 233 232 233 237 239 240 242 243 245 246 246 246 247 248 249 251 252 253 254 255 254
254 258 260 261 261 261 262 263 262 259 258 258 258 256 251 247 245 242 238 235 232 230 230 229 229 227 226 226 227 229 231 232 232 232 234 236 237 236 234 234 234 234 232 232 235 238 240 241 242 244 245 246 247 247 247 249 250 251 252 253 254 255 255
259 263 265 267 268 266 264 264 265 263 261 260 261 260 255 250 245 241 238 236 233 230 229 228 228 227 226 226 227 229 231 232 232 233 233 235 236 234 233 232 232 233 233 234 237 239 241 243 245 246 247 248 248 248 248 249 251 253 253 254 254 255 256
260 264 270 275 276 275 271 268 268 268 264 262 263 261 256 251 245 240 236 234 232 230 228 227 227 227 227 227 228 230 232 232 233 234 234 235 235 233 233 233 233 233 235 236 238 242 244 246 247 249 250 251 251 250 249 249 251 254 255 255 255 255 256
256 261 269 278 282 284 281 273 270 270 268 268 269 265 259 254 245 236 234 234 231 229 230 229 228 228 229 231 232 234 235 234 234 235 235 236 235 234 233 235 235 235 236 238 241 244 247 249 251 252 253 252 251 250 249 249 251 254 255 256 257 257 257
252 257 264 272 279 284 284 280 277 275 271 271 271 267 260 252 241 236 243 244 236 234 235 232 230 231 234 237 237 237 237 237 236 237 237 236 236 236 236 236 236 236 238 240 243 245 248 251 253 254 254 253 251 250 249 250 251 254 256 257 258 258 258
248 253 260 267 271 274 277 282 286 281 272 266 262 257 251 246 243 246 253 253 247 244 239 234 233 234 234 235 234 232 233 233 233 235 236 237 238 238 237 236 235 236 238 242 244 246 247 249 250 252 255 256 252 248 247 250 252 254 257 259 260 260 260
247 253 259 260 260 263 270 280 288 285 274 265 259 252 246 242 245 250 250 250 252 247 237 231 229 227 224 223 223 222 222 222 222 225 230 232 234 234 233 232 231 232 235 239 241 242 243 244 246 249 254 257 251 243 243 248 253 255 258 259 260 261 261
247 252 256 254 251 252 259 271 279 278 274 270 264 256 247 239 240 244 243 243 245 240 233 228 223 217 215 215 217 218 218 216 217 219 222 223 223 222 222 223 224 227 231 234 237 239 241 243 245 246 248 250 248 242 241 246 251 255 257 258 259 261 263
246 251 254 252 248 247 253 262 266 264 264 265 265 260 249 236 232 235 237 238 238 236 232 227 222 218 216 215 213 211 211 215 221 224 223 221 220 220 220 220 223 226 229 233 237 241 244 245 244 243 243 244 243 242 243 246 250 254 256 258 260 262 264
241 245 248 249 248 248 251 257 258 255 254 257 256 252 246 238 232 231 234 237 235 230 225 218 215 218 219 218 214 208 206 212 220 223 222 219 220 223 224 224 227 230 232 234 237 239 241 242 241 242 244 244 243 244 246 249 253 256 258 261 262 264 266
235 236 238 241 242 242 244 247 249 246 245 248 249 245 241 240 237 233 234 235 232 229 226 223 222 224 221 219 220 219 219 221 223 224 225 226 228 232 234 234 237 238 237 236 235 234 235 237 239 240 242 244 245 247 249 253 257 259 261 263 264 265 267
234 234 234 234 230 227 229 232 234 235 237 241 245 243 240 241 242 240 237 234 230 228 227 230 235 236 231 227 229 231 233 234 235 235 237 240 245 247 248 249 250 248 244 240 236 235 236 239 240 242 245 248 251 253 255 257 259 261 263 264 264 265 266
230 231 232 231 225 218 217 219 220 222 227 235 243 247 248 247 248 250 249 244 239 236 235 237 241 241 239 238 238 237 237 238 239 240 242 248 254 257 255 253 251 248 245 243 241 241 242 245 248 251 253 256 258 260 261 262 263 263 264 265 266 266 266
226 228 231 231 228 222 221 223 225 226 230 238 245 250 254 254 253 254 254 252 250 247 244 245 246 246 245 244 241 239 239 239 241 244 247 250 254 256 256 254 252 250 247 246 246 247 250 253 256 259 261 262 264 264 265 266 266 266 267 267 268 268 268
225 230 236 240 239 236 235 237 241 244 248 252 254 256 260 261 259 257 256 255 254 252 250 249 248 248 247 246 244 241 240 242 244 247 249 249 251 253 255 256 256 256 254 253 253 255 257 259 261 264 266 266 266 266 266 266 267 267 268 269 269 270 270
231 235 242 245 245 247 248 248 251 255 258 259 260 261 262 263 264 263 261 258 256 255 254 253 251 249 248 248 247 246 246 249 251 252 253 254 254 256 258 259 260 262 262 262 262 262 263 264 265 267 268 268 267 267 267 267 267 267 268 268 269 270 270
237 241 247 250 251 254 256 256 258 261 264 265 265 264 264 265 265 266 265 262 259 257 256 257 256 255 253 251 251 252 253 255 256 257 258 258 258 259 261 261 261 263 264 265 265 266 267 268 269 269 270 270 269 268 268 267 267 268 268 268 269 269 270